Location: Recife
(8.0585°S, 34.8848°W)
Time: 11:04:37
(UTC-03:00)

SR - Pass Details

Date: 15 April 2026
Orbit: 568 x 852 km, 66.7° (Epoch: 12 May)

Event Time Altitude Azimuth Distance (km) Brightness Sun altitude
Rises 01:17:31 0° 319° (NW) 3,399 - -60.9°
Reaches altitude 10° 01:20:18 10° 308° (NW) 2,458 - -60.2°
Maximum altitude 01:25:11 29° 249° (WSW) 1,466 - -59.0°
Drops below altitude 10° 01:29:56 10° 189° (S) 2,376 - -57.8°
Sets 01:32:36 0° 178° (S) 3,267 - -57.1°
